[[{"header":{"parameterUnit":"m.s-1","parameterCategory":1,"la1":30.2992,"la2":30.254,"lo1":-89.0895,"lo2":-89.0443,"dy":0.0025,"dx":0.0025,"nx":19,"ny":19,"refTime":"2026-03-13T09:00:00:Z","depth":0,"parameterNumber":2,"parameterNumberName":"U-component_of_WINDS"},"data":[0,0,0,-1.0294,-1.0295,-1.0346,-1.0346,-1.0417,-1.0417,0,0,0,0,0,0,0,0,0,0,0,-1.0281,-1.0282,-1.0294,-1.0296,-1.0346,-1.0346,-1.0417,-1.0417,0,0,0,0,0,0,0,0,0,0,0,-1.0281,-1.0282,-1.0282,-1.0296,-1.0346,-1.0346,-1.0416,-1.0377,0,0,0,0,0,0,0,0,0,0,-1.0327,-1.0316,-1.0281,-1.0282,-1.0296,-1.0346,-1.0346,-1.0375,-1.0379,-1.0396,0,-1.0409,0,-1.0414,-1.0422,-1.0423,0,0,0,-1.0295,-1.0312,-1.0324,-1.0282,-1.0297,-1.0346,-1.0323,-1.0377,-1.0382,-1.0402,-1.041,-1.0413,-1.0416,-1.0423,-1.0423,-1.0517,-1.0518,0,0,-1.0292,-1.0292,-1.032,-1.0327,-1.0318,-1.0321,-1.0325,-1.038,-1.039,-1.0411,-1.0414,-1.0417,-1.0423,-1.0424,-1.0517,-1.0517,0,0,0,-1.0285,-1.029,-1.03,-1.0324,-1.0333,-1.0323,-1.0327,-1.0388,-1.0391,-1.0415,-1.0418,-1.0424,-1.0425,-1.0516,-1.0517,-1.054,0,0,0,-1.0283,-1.0285,-1.0299,-1.0299,-1.0332,-1.0361,-1.0333,-1.0387,-1.0394,-1.0417,-1.0424,-1.0425,-1.0516,-1.0517,-1.0538,-1.055,0,0,0,-1.0277,-1.0285,-1.0292,-1.0299,-1.0321,-1.036,-1.0366,-1.0389,-1.0395,-1.0423,-1.0426,-1.0515,-1.0517,-1.0536,-1.0548,-1.0575,0,0,0,-1.0272,-1.0313,-1.0293,-1.034,-1.032,-1.0373,-1.0366,-1.0406,-1.0432,-1.0424,-1.0516,-1.0517,-1.0536,-1.0546,-1.0573,-1.0597,-1.0607,0,0,-1.0323,-1.0319,-1.0347,-1.033,-1.0386,-1.0365,-1.0425,-1.045,-1.0454,-1.0497,-1.0499,-1.0538,-1.0548,-1.0574,-1.0663,-1.0671,0,0,0,-1.0363,-1.0383,-1.0397,-1.0421,-1.0441,-1.0459,-1.0474,-1.0484,-1.0519,-1.0475,-1.0556,-1.0561,-1.0577,-1.0588,-1.0595,-1.0609,-1.0522,-1.0522,-1.0522,-1.0436,-1.0437,-1.0483,-1.049,-1.0514,-1.0529,-1.0549,-1.0565,-1.056,-1.0579,-1.0592,-1.0645,-1.0659,-1.0664,-1.0678,-1.0605,-1.0605,-1.0605,-1.0605,-1.0511,-1.0539,-1.0531,-1.0572,-1.0574,-1.061,-1.0627,-1.0622,-1.0657,-1.0636,-1.065,-1.0627,-1.0672,-1.0685,-1.0607,-1.0607,-1.0606,-1.0606,-1.0606,-1.0559,-1.0572,-1.0582,-1.0617,-1.0644,-1.0651,-1.0683,-1.0684,-1.0686,-1.0699,-1.0713,-1.0712,-1.0712,-1.0706,-1.0706,-1.0706,-1.0706,-1.0706,-1.0707,-1.0604,-1.0614,-1.0641,-1.0664,-1.068,-1.07,-1.0716,-1.0732,-1.075,-1.0749,-1.0749,-1.0743,-1.0676,-1.0659,-1.0709,-1.0709,-1.0709,-1.0708,-1.0708,-1.068,-1.0663,-1.0704,-1.0719,-1.0747,-1.0773,-1.0774,-1.0806,-1.082,-1.0836,-1.0827,-1.0777,-1.0773,-1.0768,-1.0754,-1.0826,-1.0826,-1.0826,-1.0826,-1.072,-1.0718,-1.0759,-1.0784,-1.0808,-1.0812,-1.086,-1.0873,-1.0885,-1.0893,-1.0883,-1.0865,-1.0859,-1.0859,-1.0852,-1.0839,-1.093,-1.0931,-1.0931,-1.0767,-1.0767,-1.0806,-1.0815,-1.0837,-1.0856,-1.09,-1.093,-1.094,-1.0935,-1.09,-1.0896,-1.0866,-1.0857,-1.085,-1.0839,-1.0815,0,0]},{"header":{"parameterUnit":"m.s-1","parameterCategory":1,"la1":30.2992,"la2":30.254,"lo1":-89.0895,"lo2":-89.0443,"dy":0.0025,"dx":0.0025,"nx":19,"ny":19,"refTime":"2026-03-13T09:00:00:Z","depth":0,"parameterNumber":3,"parameterNumberName":"V-component_of_WINDS"},"data":[0,0,0,2.3773,2.3773,2.3796,2.3796,2.3827,2.3827,0,0,0,0,0,0,0,0,0,0,0,2.3768,2.3769,2.3773,2.3773,2.3796,2.3796,2.3827,2.3827,0,0,0,0,0,0,0,0,0,0,0,2.3768,2.3769,2.3769,2.3773,2.3796,2.3796,2.3827,2.3809,0,0,0,0,0,0,0,0,0,0,2.3786,2.3785,2.3769,2.3769,2.3773,2.3796,2.3796,2.3808,2.381,2.3818,0,2.3827,0,2.3828,2.383,2.383,0,0,0,2.3771,2.3784,2.3787,2.3769,2.3774,2.3796,2.3785,2.3809,2.3811,2.3821,2.3827,2.3828,2.3828,2.383,2.383,2.3885,2.3885,0,0,2.377,2.3774,2.3786,2.3789,2.3787,2.3784,2.3786,2.381,2.3817,2.3827,2.3829,2.3829,2.383,2.383,2.3884,2.3885,0,0,0,2.3768,2.3773,2.3776,2.3788,2.3792,2.3785,2.3787,2.3816,2.3817,2.3829,2.3829,2.383,2.3831,2.3884,2.3884,2.3904,0,0,0,2.3767,2.3772,2.3776,2.3778,2.3791,2.3805,2.3792,2.3815,2.3818,2.3829,2.383,2.3831,2.3884,2.3884,2.3903,2.3912,0,0,0,2.3766,2.3771,2.3776,2.3778,2.3788,2.3804,2.3806,2.3816,2.3818,2.383,2.3831,2.3883,2.3884,2.3902,2.391,2.3927,0,0,0,2.3766,2.3794,2.3776,2.3806,2.3788,2.3817,2.3806,2.3827,2.384,2.3831,2.3884,2.3884,2.3901,2.3909,2.3925,2.394,2.3947,0,0,2.3803,2.3798,2.3816,2.38,2.3833,2.3813,2.3848,2.3856,2.3854,2.3874,2.3876,2.3903,2.391,2.3926,2.3986,2.3991,0,0,0,2.3828,2.3841,2.3848,2.3861,2.3868,2.3874,2.3877,2.3879,2.3896,2.3866,2.3914,2.3918,2.3927,2.3934,2.3939,2.3946,2.3888,2.3888,2.3888,2.3884,2.388,2.3908,2.3906,2.3918,2.392,2.3929,2.3933,2.3925,2.3937,2.3942,2.3979,2.3987,2.399,2.3998,2.3951,2.3951,2.3951,2.3951,2.3936,2.3952,2.3941,2.3964,2.3959,2.3978,2.398,2.3974,2.399,2.3975,2.3983,2.3965,2.3997,2.4003,2.3952,2.3952,2.3952,2.3952,2.3952,2.3971,2.3978,2.3981,2.3997,2.401,2.4007,2.4023,2.4018,2.4014,2.4021,2.4026,2.4025,2.4023,2.4024,2.4024,2.4024,2.4024,2.4025,2.4025,2.4005,2.4008,2.4022,2.4031,2.4038,2.4045,2.4047,2.4053,2.4058,2.4053,2.4053,2.4043,2.4001,2.399,2.4026,2.4026,2.4026,2.4026,2.4026,2.4057,2.4044,2.4066,2.4072,2.4082,2.4094,2.4087,2.41,2.4104,2.4112,2.41,2.407,2.4065,2.4061,2.4052,2.4102,2.4102,2.4102,2.4102,2.4085,2.4082,2.4102,2.4113,2.4122,2.4118,2.4141,2.4143,2.4142,2.4144,2.4136,2.4123,2.412,2.4117,2.4112,2.4102,2.4165,2.4165,2.4165,2.4116,2.4113,2.4134,2.4133,2.414,2.4145,2.4166,2.4178,2.4174,2.4167,2.4145,2.4142,2.4122,2.4115,2.4107,2.4099,2.4082,0,0]}]]